Location: Fontevrault
(47.1823°N, 0.0493°E)
Time: 15:43:24
(UTC+00:00)

Resurs 01 Rocket - Pass Details

Date: 16 June 2021
Orbit: 635 x 643 km, 97.9° (Epoch: 04 August)

Event Time Altitude Azimuth Distance (km) Brightness Sun altitude
Exits shadow 21:03:41 - 185° (S) 2,758 4.5 -9.0°
Reaches altitude 10° 21:05:34 10° 192° (SSW) 2,017 3.8 -9.2°
Maximum altitude 21:09:42 39° 262° (W) 950 2.8 -9.6°
Drops below altitude 10° 21:13:52 10° 332° (NNW) 2,032 5.7 -10.1°
Sets 21:16:12 0° 340° (NNW) 2,946 6.6 -10.3°
